Simultaneous Nadir Overpasses (SNOs) Predictions

Prediction of SNOs between GOES-16 and TERRA Satellite Orbit:

Table of predicted SNOs for the next 14.0 days since TLE Epoch: 11/2/2024
Index Date Time (GOES-16) GOES-16 Lat,Lon TERRA Lat,Lon Distance(km) Time Diff (sec)
1 11/02/2024 14:55:08 -0.05, -75.21 0.72, -78.77 405.02 80
2 11/04/2024 14:34:21 -0.05, -75.21 -0.21, -74.41 91.90 80
3 11/05/2024 02:56:52 0.04, -75.20 -0.83, -79.23 458.83 80
4 11/07/2024 02:38:44 0.04, -75.20 0.13, -74.86 39.23 80
5 11/09/2024 14:40:17 -0.03, -75.24 0.00, -75.27 5.23 80
6 11/11/2024 14:19:26 -0.02, -75.25 -0.95, -70.89 495.64 80
7 11/12/2024 02:41:56 0.02, -75.24 -0.08, -75.72 54.07 80
8 11/14/2024 02:21:03 0.02, -75.26 0.84, -71.32 447.67 80
9 11/14/2024 14:43:26 -0.02, -75.29 0.16, -76.12 94.56 80
